SCP
-0 -0 -0 -0 0 0 0 0 0 0 0 0 0 0 0 -0 -0 0 0 -0 0 -0 0 -0 -0 0 0 0 0 0 0 -0 -0 -0 -0 0 0 -0 -0 -0 0 0 -0 0 -0
-0 -0 -0 -0 -0 -0 0 -0 0 0 0 0 0 0 0 0 -0 0 0 0 -0 0 0 -0 0 0 0 0 0 0 -0 0 0 0 0 0 -0 -0 -0 0 0 0 0 0 -0
-0 -0 -0 -0 -0 -0 -0 0 0 0 0 0 0 0 0 0 -0 -0 -0 -0 -0 -0 -0 -0 0 0 0 0 0 0 -0 0 0 0 -0 -0 -0 -0 -0 -0 -0 0 0 0 -0
-0 -0 -0 -0 -0 -0 -0 -0 -0 -0 0 0 0 0 0 0 0 0 -0 -0 -0 -0 -0 -0 0 0 0 0 0 0 0 0 0 0 -0 -0 0 -0 -0 0 0 0 0 -0 -0
-0 -0 -0 -0 -0 -0 -0 -0 -0 -0 0 0 0 0 0 -0 0 0 -0 0 -0 0 -0 -0 0 0 0 0 0 -0 0 0 -0 -0 -0 -0 -0 0 0 0 0 0 0 0 0
-0 -0 -0 -0 -0 -0 -0 -0 -0 -0 -0 -0 -0 -0 0 -0 0 0 -0 0 0 0 -0 -0 0 0 0 0 0 -0 -0 0 0 0 0 -0 0 0 0 0 0 0 0 0 0
-0 -0 -0 -0 -0 -0 -0 -0 -0 -0 0 -0 -0 -0 0 0 0 0 -0 0 0 0 0 0 0 0 0 0 0 0 0 0 0 0 0 -0 -0 0 0 0 0 0 0 0 0
-0 -0 -0 -0 -0 -0 -0 -0 -0 -0 -0 -0 -0 -0 0 0 0 -0 -0 0 0 0 -0 0 -0 -0 -0 0 0 -0 0 0 0 0 0 0 0 0 0 0 0 0 0 0 1
-0 -0 -0 -0 -0 -0 -0 -0 -0 -0 0 0 0 0 -0 0 -0 -0 0 -0 0 0 0 0 0 -0 0 0 0 0 0 0 0 0 0 0 0 0 0 0 0 0 0 1 1
-0 -0 -0 -0 -0 -0 -0 -0 -0 -0 0 0 -0 -0 0 -0 -0 0 0 0 0 0 -0 -0 0 -0 -0 0 0 0 0 0 0 0 0 0 0 0 0 0 0 0 0 0 1
-0 -0 -0 -0 -0 -0 -0 -0 -0 -0 -0 -0 0 0 0 -0 -0 0 0 0 0 0 -0 -0 -0 -0 0 0 0 0 0 0 0 0 0 -0 0 0 0 0 0 0 1 0 1
-0 -0 -0 -0 -0 0 0 0 0 -0 0 0 0 0 0 0 0 0 0 0 0 -0 0 0 -0 -0 0 -0 0 0 0 0 0 0 0 0 0 0 0 0 0 0 1 0 0
-0 -0 -0 -0 -0 0 0 -0 -0 -0 0 0 0 0 0 0 0 -0 0 0 -0 -0 -0 0 0 0 -0 -0 0 -0 0 0 0 0 0 0 0 0 0 0 0 0 0 0 0
-0 -0 -0 -0 -0 0 -0 -0 -0 -0 0 -0 0 0 0 0 0 0 0 0 0 0 -0 0 -0 -0 -0 -0 0 -0 -0 -0 -0 0 -0 0 -0 0 0 0 0 0 0 1 1
-0 -0 -0 0 0 0 0 0 -0 0 0 -0 -0 0 -0 0 0 -0 0 0 -0 -0 0 -0 0 0 0 -0 0 -0 -0 -0 -0 -0 0 0 0 0 0 0 0 0 0 0 1
-0 -0 0 -0 0 0 0 0 -0 0 0 -0 0 0 0 -0 0 0 0 0 0 0 -0 -0 -0 -0 0 -0 -0 -0 0 0 0 0 0 0 0 0 0 0 0 0 1 0 1
-0 0 -0 0 0 0 0 0 0 0 0 -0 0 0 0 -0 -0 0 -0 -0 -0 -0 -0 -0 -0 0 0 0 0 0 0 0 0 0 0 0 0 0 0 0 0 0 0 1 1
-0 0 -0 0 0 0 0 0 0 0 0 0 -0 0 -0 -0 -0 -0 -0 -0 -0 -0 -0 -0 0 0 0 0 0 0 0 0 -0 -0 -0 0 0 0 0 0 0 0 0 0 0
-0 -0 0 0 0 0 0 0 0 0 0 0 0 -0 -0 -0 -0 -0 0 0 0 0 0 0 0 0 0 0 0 0 0 0 0 0 0 0 0 0 0 0 0 0 0 0 1
0 0 0 0 0 0 0 0 0 0 0 0 0 0 0 0 0 0 0 0 0 0 0 0 0 0 0 0 0 0 0 0 0 0 0 0 0 0 0 0 0 0 0 0 0
0 0 0 0 0 0 0 0 0 0 0 0 0 0 0 0 0 0 0 0 0 0 0 0 0 0 0 0 0 0 0 0 0 0 0 0 0 0 0 0 0 0 0 0 0
0 0 0 0 0 0 0 0 0 0 0 0 0 0 0 0 0 0 0 0 0 0 0 0 0 0 0 0 0 0 0 0 0 0 0 0 0 0 0 0 0 0 0 0 0
0 0 0 0 0 0 0 0 0 0 0 0 0 0 0 0 0 0 0 0 0 0 0 0 0 0 0 0 0 0 0 0 0 0 0 -0 0 0 0 0 0 0 0 0 0
0 0 0 0 0 0 0 0 0 0 0 0 0 0 0 0 0 0 0 0 0 0 0 0 0 0 0 0 0 0 0 0 0 0 0 0 0 0 0 0 0 0 0 0 0
0 0 0 0 0 0 0 0 0 0 0 0 0 0 0 0 0 0 0 0 0 0 0 0 0 0 0 0 0 0 0 0 0 0 0 -0 0 0 0 0 0 0 0 0 0
0 0 0 0 0 0 0 0 0 0 0 0 0 0 0 0 0 0 0 0 0 0 0 0 0 0 0 0 0 0 0 0 0 0 0 0 0 0 0 0 0 0 0 0 -0
0 0 0 0 0 0 1 1 0 1 0 0 0 0 0 0 0 0 0 0 0 0 0 0 0 0 0 0 0 0 0 0 0 0 0 0 0 0 0 0 0 0 0 0 -0
Wind_Speed_500mb
28 26 23 18 10 7 5 5 5 4 5 6 9 12 15 19 24 27 22 15 15 9 4 5 5 7 5 6 7 6 11 8 13 5 12 7 8 1 3 6 12 10 8 3 22
30 25 22 19 12 6 4 2 2 2 3 5 7 11 14 19 23 25 25 20 16 13 8 6 4 5 5 4 3 9 7 12 9 9 7 6 5 1 9 11 17 16 9 10 26
33 27 23 18 13 6 1 1 1 2 2 4 6 9 14 17 12 24 29 22 19 15 9 6 4 6 5 3 2 4 12 8 8 6 10 15 11 11 16 14 8 12 16 19 27
39 31 24 20 15 6 1 2 1 1 2 3 5 9 14 21 22 19 29 23 19 20 11 7 7 8 5 4 2 9 4 6 4 3 10 15 14 12 14 16 13 11 7 21 24
43 35 27 21 15 9 2 2 1 1 1 3 5 9 15 14 4 26 26 27 25 20 17 10 10 14 11 10 5 10 8 8 8 16 13 16 12 14 5 11 10 7 7 16 19
49 39 31 22 16 10 3 3 2 0 1 3 6 11 13 20 17 21 21 27 29 24 15 11 8 15 14 10 10 14 16 9 4 5 7 19 4 8 6 6 3 3 6 11 17
51 45 35 25 18 10 3 4 4 3 1 3 7 14 13 6 13 13 23 26 27 24 13 12 12 11 18 6 12 11 12 8 8 7 8 18 13 1 4 3 1 3 7 10 12
50 49 40 29 19 10 2 5 5 3 2 3 7 13 5 12 13 8 22 26 26 20 15 8 11 18 15 8 12 10 7 7 10 6 4 9 6 6 4 8 6 5 7 10 11
51 52 44 32 19 9 1 6 5 3 3 5 7 8 10 13 10 13 17 15 22 19 11 12 9 16 14 21 22 17 15 9 8 4 6 9 18 6 6 8 11 10 9 9 11
52 53 49 34 18 7 4 7 5 3 4 6 8 8 10 11 12 17 20 22 17 19 13 13 15 18 20 16 13 13 18 15 15 8 12 16 18 6 12 13 13 12 12 9 11
53 53 54 37 18 6 9 9 2 3 12 8 12 6 14 9 18 14 23 22 18 24 28 22 19 21 15 15 18 18 19 20 11 6 16 26 18 16 22 22 22 19 18 13 12
53 54 56 37 18 6 15 8 3 4 8 15 16 16 9 5 17 23 24 25 23 27 18 14 28 26 8 22 20 22 23 22 12 2 15 32 30 30 25 24 22 22 21 19 19
54 54 56 35 14 9 20 12 8 6 10 13 15 22 14 16 19 31 30 27 25 23 24 30 26 2 14 27 28 31 29 23 32 35 28 29 32 19 16 25 16 14 18 19 21
55 54 56 31 5 8 12 14 7 7 11 17 17 19 18 13 19 20 30 20 16 25 17 21 18 16 26 26 28 33 27 33 29 31 28 7 28 32 9 20 25 26 24 24 22
54 54 53 21 9 11 16 11 7 5 10 17 15 10 16 31 6 26 24 20 30 21 16 24 16 21 23 31 31 33 30 30 31 34 35 33 19 23 11 14 25 25 26 26 26
54 52 45 16 15 20 16 7 7 13 6 15 16 23 24 34 19 10 21 19 12 20 22 34 42 16 35 31 31 23 30 36 34 30 27 20 14 22 20 22 23 21 21 27 30
50 50 31 11 11 24 14 10 11 12 8 17 18 19 32 24 27 18 20 27 27 25 28 30 26 21 16 27 16 14 25 24 25 22 19 10 15 25 25 17 13 20 26 30 30
46 39 17 10 21 25 19 13 13 4 9 6 10 17 25 17 17 21 24 26 30 27 28 28 26 3 8 13 21 21 18 20 34 27 32 34 21 10 9 6 7 11 27 29 29
43 16 12 9 25 20 18 17 6 7 4 7 19 24 18 18 10 16 15 10 8 11 17 24 22 4 7 14 12 14 19 14 22 36 20 25 13 15 7 4 6 18 23 26 28
37 1 1 8 21 16 17 12 5 2 4 8 19 15 19 23 17 14 9 5 5 2 6 13 27 25 11 11 20 23 10 21 15 20 28 25 18 16 6 13 10 18 22 26 30
17 7 7 4 11 17 18 12 6 6 10 6 7 11 10 13 13 8 1 9 2 3 7 15 14 28 11 27 27 13 22 12 11 13 27 27 13 5 11 17 16 17 26 31 37
10 8 8 3 16 10 17 7 3 11 11 12 6 3 13 10 10 9 6 3 6 4 12 11 12 26 36 20 12 18 27 30 21 29 16 24 23 11 13 13 11 6 23 33 37
20 6 3 6 9 13 8 14 10 12 11 8 12 9 6 14 11 10 5 8 6 5 9 6 9 19 18 11 8 13 16 18 22 21 33 27 19 11 4 8 5 8 25 31 33
11 5 8 5 1 10 6 15 17 15 18 10 5 12 16 15 7 9 11 6 5 5 4 2 14 21 23 29 26 28 29 22 19 18 26 24 22 29 28 19 8 12 25 29 22
9 6 5 2 9 9 8 4 15 13 11 15 12 19 19 14 11 8 3 9 5 3 5 6 15 19 24 28 26 26 24 20 29 27 23 34 26 27 24 11 17 20 19 16 12
14 12 12 12 10 12 8 8 9 7 7 19 16 14 10 5 3 4 6 6 6 8 3 3 12 18 26 6 13 17 10 17 10 19 23 18 11 23 28 21 14 12 19 27 29
20 15 9 4 5 10 4 5 1 7 5 0 8 13 12 12 10 10 6 4 2 4 2 5 12 13 12 10 20 3 22 16 14 21 18 18 21 27 29 39 37 35 21 6 16
Wind_Direction_500mb
30 26 26 28 38 60 82 107 136 147 165 180 180 184 188 186 186 189 203 201 204 167 124 127 176 224 259 280 297 303 229 158 112 180 79 81 239 181 268 216 226 215 261 163 160
27 25 22 22 26 43 73 93 120 145 173 185 190 184 185 186 187 215 201 191 192 175 124 166 213 231 249 268 260 274 285 69 27 56 21 152 300 181 258 212 231 217 221 182 173
23 20 18 16 18 16 36 98 144 156 191 192 196 185 178 177 186 198 194 194 198 197 225 235 263 281 277 286 93 75 17 58 79 356 299 304 280 257 272 283 280 273 226 189 184
18 15 12 10 9 3 262 212 181 219 181 196 185 183 170 160 176 180 196 197 198 209 217 238 280 272 305 5 19 291 92 309 13 306 314 303 313 273 284 343 323 312 282 195 195
15 14 9 7 1 352 313 223 205 219 205 180 176 173 163 191 149 172 194 200 210 209 212 245 292 322 356 358 307 256 330 316 258 289 285 311 275 317 328 334 326 307 213 202 202
15 12 8 2 359 353 302 217 212 190 219 188 169 166 162 202 162 172 188 206 215 205 223 235 318 330 301 311 301 337 315 302 274 273 280 304 327 284 99 340 360 84 157 182 195
12 10 6 358 355 351 298 201 180 163 181 189 173 169 195 59 168 185 196 201 200 200 213 249 277 288 327 261 315 296 292 172 124 54 14 321 225 304 349 338 289 132 143 152 172
8 7 4 357 350 348 280 202 180 171 151 163 166 165 198 192 177 174 185 192 204 200 224 267 259 281 263 286 236 269 241 253 93 304 92 288 346 107 309 286 253 189 166 156 164
4 4 1 357 346 344 222 192 176 152 137 150 151 157 160 191 194 202 181 183 185 196 225 254 249 268 239 243 242 212 273 251 266 224 306 254 313 109 265 245 244 226 193 167 163
360 360 358 353 343 321 186 177 171 167 146 136 157 198 201 176 176 172 176 170 173 187 206 217 229 248 226 253 318 268 314 310 264 115 246 262 265 230 229 231 228 216 203 199 178
355 355 355 348 338 284 190 163 201 188 214 215 174 281 131 153 154 173 174 175 180 203 225 206 246 257 312 305 319 306 297 293 294 314 272 300 298 283 229 226 228 217 210 206 178
350 349 352 346 333 227 183 205 249 104 219 225 237 234 198 161 179 174 166 192 200 218 206 228 235 252 287 288 266 279 282 280 294 258 290 302 304 289 234 247 243 215 197 184 167
345 344 348 343 329 188 186 202 206 314 247 186 211 214 206 201 208 184 188 214 218 225 229 261 295 53 271 270 254 261 270 286 297 313 276 260 274 235 234 242 238 219 180 175 171
341 340 342 340 314 186 196 198 266 283 243 149 198 212 205 208 228 200 203 226 225 256 242 258 266 277 268 262 269 270 276 291 301 287 293 327 291 298 221 227 221 215 205 193 169
338 335 336 326 238 172 201 216 266 180 203 146 150 182 189 207 91 192 204 222 257 220 241 260 222 253 265 276 279 298 296 301 298 291 292 285 243 282 202 250 242 216 208 196 177
333 332 330 317 225 204 189 218 177 231 147 147 149 182 183 204 217 139 199 221 273 271 248 270 285 277 276 286 289 290 277 270 262 260 258 294 321 292 310 356 320 177 193 174 166
330 330 322 280 202 185 185 165 228 252 138 157 175 186 204 190 223 218 187 212 236 243 252 254 258 241 283 273 240 246 257 271 265 248 283 168 287 298 332 344 305 175 176 165 157
331 328 313 258 194 182 173 214 238 116 190 131 192 180 196 181 215 208 240 250 233 265 271 278 292 173 120 291 315 300 306 290 299 302 312 318 280 9 19 8 334 156 158 156 154
335 327 310 257 189 187 211 217 224 183 121 192 174 185 176 189 252 212 230 302 8 236 266 302 275 92 269 298 281 290 252 350 301 271 250 276 297 243 167 198 208 171 170 158 154
338 310 310 153 184 190 232 250 256 233 314 219 198 224 190 182 205 212 180 108 154 359 289 313 290 295 303 278 231 253 329 277 261 287 289 297 280 292 166 11 189 208 195 168 156
342 250 197 102 176 212 225 214 265 249 260 257 191 180 192 182 233 216 289 122 181 148 286 308 270 294 243 258 285 245 245 230 300 295 291 290 304 71 10 352 337 201 202 176 161
7 237 212 165 210 231 233 234 313 263 235 233 261 241 203 180 218 242 273 360 75 6 296 32 302 287 287 310 296 284 291 303 288 278 261 288 286 84 62 31 30 156 180 176 167
329 291 282 188 239 206 198 247 258 247 225 210 214 217 188 194 217 236 185 83 75 347 339 16 259 290 284 205 216 268 295 277 283 290 270 278 265 76 86 17 37 197 177 175 176
325 256 171 208 98 302 254 236 235 221 251 234 189 180 181 186 193 193 200 103 74 62 67 246 260 265 285 311 312 292 290 308 293 268 273 277 320 313 47 18 9 249 188 177 171
340 59 341 233 153 302 254 298 225 206 222 206 196 206 195 198 201 231 219 160 133 137 189 269 270 291 294 299 299 285 276 282 262 271 273 283 278 3 351 335 321 277 124 96 197
353 349 330 279 286 269 171 180 243 154 238 180 220 160 168 189 332 322 303 253 301 159 230 189 284 306 294 304 290 293 332 348 353 356 313 318 66 7 17 59 34 102 143 172 222
349 328 313 274 256 256 103 339 164 309 87 53 148 165 156 77 66 64 63 92 93 275 181 269 319 300 284 311 301 217 16 57 62 25 355 23 17 17 43 55 40 22 27 312 251
Wind_Speed_850mb
28 26 23 18 10 7 5 5 5 4 5 6 9 12 15 19 24 27 22 15 15 9 4 5 5 7 5 6 7 6 11 8 13 5 12 7 8 1 3 6 12 10 8 3 22
30 25 22 19 12 6 4 2 2 2 3 5 7 11 14 19 23 25 25 20 16 13 8 6 4 5 5 4 3 9 7 12 9 9 7 6 5 1 9 11 17 16 9 10 26
33 27 23 18 13 6 1 1 1 2 2 4 6 9 14 17 12 24 29 22 19 15 9 6 4 6 5 3 2 4 12 8 8 6 10 15 11 11 16 14 8 12 16 19 27
39 31 24 20 15 6 1 2 1 1 2 3 5 9 14 21 22 19 29 23 19 20 11 7 7 8 5 4 2 9 4 6 4 3 10 15 14 12 14 16 13 11 7 21 24
43 35 27 21 15 9 2 2 1 1 1 3 5 9 15 14 4 26 26 27 25 20 17 10 10 14 11 10 5 10 8 8 8 16 13 16 12 14 5 11 10 7 7 16 19
49 39 31 22 16 10 3 3 2 0 1 3 6 11 13 20 17 21 21 27 29 24 15 11 8 15 14 10 10 14 16 9 4 5 7 19 4 8 6 6 3 3 6 11 17
51 45 35 25 18 10 3 4 4 3 1 3 7 14 13 6 13 13 23 26 27 24 13 12 12 11 18 6 12 11 12 8 8 7 8 18 13 1 4 3 1 3 7 10 12
50 49 40 29 19 10 2 5 5 3 2 3 7 13 5 12 13 8 22 26 26 20 15 8 11 18 15 8 12 10 7 7 10 6 4 9 6 6 4 8 6 5 7 10 11
51 52 44 32 19 9 1 6 5 3 3 5 7 8 10 13 10 13 17 15 22 19 11 12 9 16 14 21 22 17 15 9 8 4 6 9 18 6 6 8 11 10 9 9 11
52 53 49 34 18 7 4 7 5 3 4 6 8 8 10 11 12 17 20 22 17 19 13 13 15 18 20 16 13 13 18 15 15 8 12 16 18 6 12 13 13 12 12 9 11
53 53 54 37 18 6 9 9 2 3 12 8 12 6 14 9 18 14 23 22 18 24 28 22 19 21 15 15 18 18 19 20 11 6 16 26 18 16 22 22 22 19 18 13 12
53 54 56 37 18 6 15 8 3 4 8 15 16 16 9 5 17 23 24 25 23 27 18 14 28 26 8 22 20 22 23 22 12 2 15 32 30 30 25 24 22 22 21 19 19
54 54 56 35 14 9 20 12 8 6 10 13 15 22 14 16 19 31 30 27 25 23 24 30 26 2 14 27 28 31 29 23 32 35 28 29 32 19 16 25 16 14 18 19 21
55 54 56 31 5 8 12 14 7 7 11 17 17 19 18 13 19 20 30 20 16 25 17 21 18 16 26 26 28 33 27 33 29 31 28 7 28 32 9 20 25 26 24 24 22
54 54 53 21 9 11 16 11 7 5 10 17 15 10 16 31 6 26 24 20 30 21 16 24 16 21 23 31 31 33 30 30 31 34 35 33 19 23 11 14 25 25 26 26 26
54 52 45 16 15 20 16 7 7 13 6 15 16 23 24 34 19 10 21 19 12 20 22 34 42 16 35 31 31 23 30 36 34 30 27 20 14 22 20 22 23 21 21 27 30
50 50 31 11 11 24 14 10 11 12 8 17 18 19 32 24 27 18 20 27 27 25 28 30 26 21 16 27 16 14 25 24 25 22 19 10 15 25 25 17 13 20 26 30 30
46 39 17 10 21 25 19 13 13 4 9 6 10 17 25 17 17 21 24 26 30 27 28 28 26 3 8 13 21 21 18 20 34 27 32 34 21 10 9 6 7 11 27 29 29
43 16 12 9 25 20 18 17 6 7 4 7 19 24 18 18 10 16 15 10 8 11 17 24 22 4 7 14 12 14 19 14 22 36 20 25 13 15 7 4 6 18 23 26 28
37 1 1 8 21 16 17 12 5 2 4 8 19 15 19 23 17 14 9 5 5 2 6 13 27 25 11 11 20 23 10 21 15 20 28 25 18 16 6 13 10 18 22 26 30
17 7 7 4 11 17 18 12 6 6 10 6 7 11 10 13 13 8 1 9 2 3 7 15 14 28 11 27 27 13 22 12 11 13 27 27 13 5 11 17 16 17 26 31 37
10 8 8 3 16 10 17 7 3 11 11 12 6 3 13 10 10 9 6 3 6 4 12 11 12 26 36 20 12 18 27 30 21 29 16 24 23 11 13 13 11 6 23 33 37
20 6 3 6 9 13 8 14 10 12 11 8 12 9 6 14 11 10 5 8 6 5 9 6 9 19 18 11 8 13 16 18 22 21 33 27 19 11 4 8 5 8 25 31 33
11 5 8 5 1 10 6 15 17 15 18 10 5 12 16 15 7 9 11 6 5 5 4 2 14 21 23 29 26 28 29 22 19 18 26 24 22 29 28 19 8 12 25 29 22
9 6 5 2 9 9 8 4 15 13 11 15 12 19 19 14 11 8 3 9 5 3 5 6 15 19 24 28 26 26 24 20 29 27 23 34 26 27 24 11 17 20 19 16 12
14 12 12 12 10 12 8 8 9 7 7 19 16 14 10 5 3 4 6 6 6 8 3 3 12 18 26 6 13 17 10 17 10 19 23 18 11 23 28 21 14 12 19 27 29
20 15 9 4 5 10 4 5 1 7 5 0 8 13 12 12 10 10 6 4 2 4 2 5 12 13 12 10 20 3 22 16 14 21 18 18 21 27 29 39 37 35 21 6 16
Wind_Direction_850mb
30 26 26 28 38 60 82 107 136 147 165 180 180 184 188 186 186 189 203 201 204 167 124 127 176 224 259 280 297 303 229 158 112 180 79 81 239 181 268 216 226 215 261 163 160
27 25 22 22 26 43 73 93 120 145 173 185 190 184 185 186 187 215 201 191 192 175 124 166 213 231 249 268 260 274 285 69 27 56 21 152 300 181 258 212 231 217 221 182 173
23 20 18 16 18 16 36 98 144 156 191 192 196 185 178 177 186 198 194 194 198 197 225 235 263 281 277 286 93 75 17 58 79 356 299 304 280 257 272 283 280 273 226 189 184
18 15 12 10 9 3 262 212 181 219 181 196 185 183 170 160 176 180 196 197 198 209 217 238 280 272 305 5 19 291 92 309 13 306 314 303 313 273 284 343 323 312 282 195 195
15 14 9 7 1 352 313 223 205 219 205 180 176 173 163 191 149 172 194 200 210 209 212 245 292 322 356 358 307 256 330 316 258 289 285 311 275 317 328 334 326 307 213 202 202
15 12 8 2 359 353 302 217 212 190 219 188 169 166 162 202 162 172 188 206 215 205 223 235 318 330 301 311 301 337 315 302 274 273 280 304 327 284 99 340 360 84 157 182 195
12 10 6 358 355 351 298 201 180 163 181 189 173 169 195 59 168 185 196 201 200 200 213 249 277 288 327 261 315 296 292 172 124 54 14 321 225 304 349 338 289 132 143 152 172
8 7 4 357 350 348 280 202 180 171 151 163 166 165 198 192 177 174 185 192 204 200 224 267 259 281 263 286 236 269 241 253 93 304 92 288 346 107 309 286 253 189 166 156 164
4 4 1 357 346 344 222 192 176 152 137 150 151 157 160 191 194 202 181 183 185 196 225 254 249 268 239 243 242 212 273 251 266 224 306 254 313 109 265 245 244 226 193 167 163
360 360 358 353 343 321 186 177 171 167 146 136 157 198 201 176 176 172 176 170 173 187 206 217 229 248 226 253 318 268 314 310 264 115 246 262 265 230 229 231 228 216 203 199 178
355 355 355 348 338 284 190 163 201 188 214 215 174 281 131 153 154 173 174 175 180 203 225 206 246 257 312 305 319 306 297 293 294 314 272 300 298 283 229 226 228 217 210 206 178
350 349 352 346 333 227 183 205 249 104 219 225 237 234 198 161 179 174 166 192 200 218 206 228 235 252 287 288 266 279 282 280 294 258 290 302 304 289 234 247 243 215 197 184 167
345 344 348 343 329 188 186 202 206 314 247 186 211 214 206 201 208 184 188 214 218 225 229 261 295 53 271 270 254 261 270 286 297 313 276 260 274 235 234 242 238 219 180 175 171
341 340 342 340 314 186 196 198 266 283 243 149 198 212 205 208 228 200 203 226 225 256 242 258 266 277 268 262 269 270 276 291 301 287 293 327 291 298 221 227 221 215 205 193 169
338 335 336 326 238 172 201 216 266 180 203 146 150 182 189 207 91 192 204 222 257 220 241 260 222 253 265 276 279 298 296 301 298 291 292 285 243 282 202 250 242 216 208 196 177
333 332 330 317 225 204 189 218 177 231 147 147 149 182 183 204 217 139 199 221 273 271 248 270 285 277 276 286 289 290 277 270 262 260 258 294 321 292 310 356 320 177 193 174 166
330 330 322 280 202 185 185 165 228 252 138 157 175 186 204 190 223 218 187 212 236 243 252 254 258 241 283 273 240 246 257 271 265 248 283 168 287 298 332 344 305 175 176 165 157
331 328 313 258 194 182 173 214 238 116 190 131 192 180 196 181 215 208 240 250 233 265 271 278 292 173 120 291 315 300 306 290 299 302 312 318 280 9 19 8 334 156 158 156 154
335 327 310 257 189 187 211 217 224 183 121 192 174 185 176 189 252 212 230 302 8 236 266 302 275 92 269 298 281 290 252 350 301 271 250 276 297 243 167 198 208 171 170 158 154
338 310 310 153 184 190 232 250 256 233 314 219 198 224 190 182 205 212 180 108 154 359 289 313 290 295 303 278 231 253 329 277 261 287 289 297 280 292 166 11 189 208 195 168 156
342 250 197 102 176 212 225 214 265 249 260 257 191 180 192 182 233 216 289 122 181 148 286 308 270 294 243 258 285 245 245 230 300 295 291 290 304 71 10 352 337 201 202 176 161
7 237 212 165 210 231 233 234 313 263 235 233 261 241 203 180 218 242 273 360 75 6 296 32 302 287 287 310 296 284 291 303 288 278 261 288 286 84 62 31 30 156 180 176 167
329 291 282 188 239 206 198 247 258 247 225 210 214 217 188 194 217 236 185 83 75 347 339 16 259 290 284 205 216 268 295 277 283 290 270 278 265 76 86 17 37 197 177 175 176
325 256 171 208 98 302 254 236 235 221 251 234 189 180 181 186 193 193 200 103 74 62 67 246 260 265 285 311 312 292 290 308 293 268 273 277 320 313 47 18 9 249 188 177 171
340 59 341 233 153 302 254 298 225 206 222 206 196 206 195 198 201 231 219 160 133 137 189 269 270 291 294 299 299 285 276 282 262 271 273 283 278 3 351 335 321 277 124 96 197
353 349 330 279 286 269 171 180 243 154 238 180 220 160 168 189 332 322 303 253 301 159 230 189 284 306 294 304 290 293 332 348 353 356 313 318 66 7 17 59 34 102 143 172 222
349 328 313 274 256 256 103 339 164 309 87 53 148 165 156 77 66 64 63 92 93 275 181 269 319 300 284 311 301 217 16 57 62 25 355 23 17 17 43 55 40 22 27 312 251